Location: Aufkirchen
(47.9603°N, 11.3653°E)
Time: 23:53:53
(UTC+02:00)

Altair - Visible Passes

Search period start: 29 July 2021 00:00
Search period end: 08 August 2021 00:00
Orbit: 1501 x 1682 km, 47.2° (Epoch: 28 July)

Date Brightness Start Highest point End Pass type
(mag) Time Alt. Az. Time Alt. Az. Time Alt. Az.
29 Jul 9.1 01:16:51 12° SE 01:16:59 12° SE 01:20:15 10° ESE visible
29 Jul 8.0 03:14:51 25° SSW 03:19:41 42° SE 03:28:05 10° ENE visible
30 Jul 9.2 00:52:47 11° ESE 00:52:47 11° ESE 00:53:49 10° ESE visible
30 Jul 8.0 02:50:47 28° S 02:54:37 39° SE 03:02:54 10° ENE visible
30 Jul 7.5 04:49:11 10° WSW 04:58:30 76° SSE 05:07:39 10° E visible
31 Jul 8.0 02:26:40 31° S 02:29:32 37° SE 02:37:41 10° ENE visible
31 Jul 7.5 04:24:40 12° WSW 04:33:21 74° SSE 04:42:30 10° E visible
01 Aug 8.1 02:02:32 32° SSE 02:04:29 34° SE 02:12:28 10° ENE visible
01 Aug 7.5 04:00:31 17° WSW 04:08:12 72° SSE 04:17:20 10° ENE visible
02 Aug 8.1 01:38:21 31° SSE 01:39:25 32° SE 01:47:15 10° E visible
02 Aug 7.4 03:36:20 21° SW 03:43:04 69° SSE 03:52:11 10° ENE visible
03 Aug 8.2 01:14:06 30° SE 01:14:22 30° SE 01:21:59 10° E visible
03 Aug 7.4 03:12:05 26° SW 03:17:56 67° SSE 03:27:01 10° ENE visible
03 Aug 7.5 05:13:07 10° W 05:22:28 87° S 05:31:41 10° E visible
04 Aug 8.3 00:49:50 27° SE 00:49:50 27° SE 00:56:43 10° E visible
04 Aug 7.4 02:47:48 31° SW 02:52:48 64° SSE 03:01:52 10° ENE visible
04 Aug 7.5 04:47:55 10° W 04:57:18 87° S 05:06:30 10° E visible
05 Aug 8.4 00:25:29 25° ESE 00:25:29 25° ESE 00:31:25 10° E visible
05 Aug 7.4 02:23:27 35° SW 02:27:40 62° SSE 02:36:42 10° ENE visible
05 Aug 7.4 04:22:43 10° W 04:32:07 87° S 04:41:20 10° E visible
06 Aug 8.5 00:01:04 22° ESE 00:01:04 22° ESE 00:06:06 10° E visible
06 Aug 7.5 01:59:02 39° SSW 02:02:33 59° SSE 02:11:33 10° ENE visible
06 Aug 7.4 03:57:30 10° W 04:06:57 86° S 04:16:10 10° E visible
06 Aug 8.6 23:36:33 20° ESE 23:36:33 20° ESE 23:40:44 10° E visible
07 Aug 7.5 01:34:30 42° SSW 01:37:26 56° SSE 01:46:23 10° ENE visible
07 Aug 7.4 03:32:27 11° W 03:41:47 85° S 03:51:01 10° E visible
07 Aug 8.7 23:11:54 17° ESE 23:11:54 17° ESE 23:15:19 10° E visible
